TimeCDT,TemperatureF,Dew PointF,Humidity,Sea Level PressureIn,VisibilityMPH,Wind Direction,Wind SpeedMPH,Gust SpeedMPH,PrecipitationIn,Events,Conditions,WindDirDegrees,DateUTC
12:52 AM,55.9,48.9,77,30.02,10.0,NNW,3.5,-,N/A,,Clear,330,2013-05-07 05:52:00
1:52 AM,54.0,48.9,83,30.01,10.0,WNW,4.6,-,N/A,,Clear,300,2013-05-07 06:52:00
2:52 AM,53.6,48.2,82,30.02,10.0,NNW,5.8,-,N/A,,Clear,330,2013-05-07 07:52:00
3:52 AM,52.0,48.0,86,30.01,10.0,NW,4.6,-,N/A,,Clear,320,2013-05-07 08:52:00
4:52 AM,50.0,48.0,93,30.01,9.0,NNW,5.8,-,N/A,,Clear,330,2013-05-07 09:52:00
5:52 AM,50.0,46.0,86,30.02,8.0,Calm,Calm,-,N/A,,Clear,0,2013-05-07 10:52:00
6:52 AM,52.0,48.0,86,30.03,9.0,NNW,6.9,-,N/A,,Clear,330,2013-05-07 11:52:00
7:52 AM,57.0,50.0,77,30.04,10.0,NNW,3.5,-,N/A,,Clear,340,2013-05-07 12:52:00
8:52 AM,62.1,51.1,67,30.05,10.0,NW,3.5,-,N/A,,Clear,320,2013-05-07 13:52:00
9:52 AM,66.0,53.1,63,30.05,10.0,NW,4.6,-,N/A,,Clear,310,2013-05-07 14:52:00
10:52 AM,73.0,48.0,41,30.04,10.0,North,8.1,-,N/A,,Clear,10,2013-05-07 15:52:00
11:52 AM,73.9,45.0,35,30.03,10.0,Calm,Calm,-,N/A,,Clear,0,2013-05-07 16:52:00
12:52 PM,72.0,46.0,40,30.02,10.0,WNW,3.5,-,N/A,,Scattered Clouds,290,2013-05-07 17:52:00
1:52 PM,75.0,44.1,33,30.01,10.0,Calm,Calm,-,N/A,,Scattered Clouds,0,2013-05-07 18:52:00
2:52 PM,77.0,46.0,33,30.00,10.0,Variable,3.5,-,N/A,,Partly Cloudy,0,2013-05-07 19:52:00
3:52 PM,75.9,44.1,32,29.99,10.0,Variable,3.5,-,N/A,,Clear,0,2013-05-07 20:52:00
4:52 PM,75.9,44.1,32,29.98,10.0,WSW,5.8,-,N/A,,Scattered Clouds,250,2013-05-07 21:52:00
5:52 PM,75.9,43.0,31,29.98,10.0,Variable,5.8,-,N/A,,Clear,0,2013-05-07 22:52:00
6:52 PM,73.0,46.0,38,29.97,10.0,SW,4.6,-,N/A,,Clear,230,2013-05-07 23:52:00
7:52 PM,72.0,48.9,44,29.97,10.0,Calm,Calm,-,N/A,,Clear,0,2013-05-08 00:52:00
8:52 PM,68.0,48.0,49,29.98,10.0,Calm,Calm,-,N/A,,Clear,0,2013-05-08 01:52:00
9:52 PM,62.1,50.0,65,29.99,10.0,WSW,5.8,-,N/A,,Clear,240,2013-05-08 02:52:00
10:52 PM,62.1,48.0,60,29.98,10.0,Calm,Calm,-,N/A,,Clear,0,2013-05-08 03:52:00
11:52 PM,59.0,48.0,67,29.97,10.0,Calm,Calm,-,N/A,,Clear,0,2013-05-08 04:52:00